Location: Madingley
(52.2167°N, 0.0500°E)
Time: 21:45:19
(UTC+00:00)

Cosmos 1933 - Pass Details

Date: 15 May 2026
Orbit: 508 x 512 km, 82.5° (Epoch: 10 June)

Event Time Altitude Azimuth Distance (km) Brightness Sun altitude
Exits shadow 21:20:12 - 191° (S) 2,031 5.8 -11.1°
Reaches altitude 10° 21:20:56 10° 192° (SSW) 1,730 5.5 -11.2°
Maximum altitude 21:24:44 84° 278° (W) 522 3.2 -11.5°
Drops below altitude 10° 21:28:34 10° 10° (N) 1,748 6.6 -11.9°
Sets 21:30:43 0° 11° (N) 2,641 7.5 -12.0°
